Location: Holbach
(51.5399°N, 10.6036°E)
Time: 01:32:27
(UTC+00:00)

SPOT 1/Viking Rocket - Pass Details

Date: 18 September 2020
Orbit: 777 x 794 km, 98.5° (Epoch: 23 October)

Event Time Altitude Azimuth Distance (km) Brightness Sun altitude
Exits shadow 19:33:46 35° 88° (E) 1,256 4.2 -20.0°
Maximum altitude 19:34:41 38° 64° (ENE) 1,192 4.2 -20.1°
Drops below altitude 10° 19:39:26 10° 358° (N) 2,352 6.4 -20.8°
Sets 19:41:53 0° 350° (N) 3,282 7.4 -21.1°
